Regional Weather Roundup
Issued by NWS

Home | Current Version | Previous Version | Text Only | Print | Product List | Glossary On
Versions: 1 2 3 4 5 6 7 8 9 10 11 12 13 14 15 16 17 18 19 20 21 22 23 24 25 26 27 28 29 30 31 32 33 34 35 36 37 38 39 40 41 42 43 44 45 46 47 48 49 50
000
ASPQ40 PGUM 261310
RWRPQ
WEATHER ROUNDUP FOR THE MARIANAS AND MICRONESIA
NATIONAL WEATHER SERVICE TIYAN GU
1100 PM CHST SUN JAN 26 2020

GUZ001>004-261400-
MARIANA ISLANDS-

CITY           SKY/WX    TMP DP  RH WIND       PRES   REMARKS
GUAM AIRPORT   MOCLDY    77  73  88 E12       29.92F
ANDERSEN AFB   LGT RAIN  77  73  88 E17       29.93F
ROTA AIRPORT   NOT AVBL
TINIAN AP      NOT AVBL
SAIPAN AP      CLEAR     81  66  61 E17       29.94S

$$

PMZ161-261400-
REPUBLIC OF PALAU-

CITY           SKY/WX    TMP DP  RH WIND       PRES   REMARKS
KOROR AP       MOCLDY    81  75  83 E6G12     29.84R
KOROR WSO      NOT AVBL

$$

PMZ171>174-261400-
FEDERATED STATES OF MICRONESIA-

CITY           SKY/WX    TMP DP  RH WIND       PRES   REMARKS
YAP AIRPORT    PTCLDY    82  75  78 VRB5      29.87S
CHUUK AP       MOCLDY    82  79  89 VRB6      29.83S HX  93
POHNPEI AP     NOT AVBL
POHNPEI WSO    MOCLDY    81  75  83 E6        29.81F
KOSRAE AP      NOT AVBL

$$

PMZ181-261400-
REPUBLIC OF THE MARSHALL ISLANDS-

CITY           SKY/WX    TMP DP  RH WIND       PRES   REMARKS
KWAJALEIN AP   PTCLDY    82  79  89 E18       29.87S HX  93
MAJURO AP      NOT AVBL
MAJURO WSO     MOCLDY    82  77  83 E15       29.82S HX  91

$$




USA.gov is the U.S. government's official web portal to all federal, state and local government web resources and services.